Back to catalog

FENGYUN 1C DEB

AliveSSO
NORAD 35156·DEBRIS·🇨🇳 China

Launched May 10, 1999 from Taiyuan Satellite Launch Center

Loading…

Next Passes (next 24 hours)

TLE

FreshSource: Space-Track

Epoch: Sep 14, 2026, 10:22 UTC

1 35156U 99025DML 26257.43225544  .00000258  00000-0  16634-3 0  9994
2 35156  98.7788 242.1531 0037541  88.6674 271.8798 14.10916765679314

Track FENGYUN 1C DEB in real time with AllMySat

Download on the App Store